GW3396 Weather Reports


time (UTC)temp
C
wind
direction
speed
KPH
gust
KPH
rain 1hr
cm
rain 24hr
cm
rain mn
cm
humidity
%
barometer
mb
20260906083026 22 307 1.6 4.8 0.00 0.00 0.00 88 1015.1
20260906081530 22 1 0.0 4.8 0.00 0.00 0.00 87 1014.8
20260906080033 22 326 1.6 6.4 0.00 0.00 0.00 88 1014.9
20260906074518 22 331 4.8 11.3 0.00 0.00 0.00 89 1014.8
20260906073003 22 359 6.4 9.7 0.00 0.00 0.00 90 1015.1
20260906071504 21 346 4.8 11.3 0.00 0.00 0.00 91 1015.1
20260906070006 21 338 1.6 11.3 0.00 0.00 0.00 92 1015.0
20260906064517 21 359 1.6 6.4 0.00 0.00 0.00 91 1014.7
20260906063021 21 167 0.0 3.2 0.00 0.00 0.00 91 1014.8
20260906061504 21 167 0.0 1.6 0.00 0.00 0.00 90 1014.8
20260906060006 21 167 0.0 0.0 0.00 0.00 0.00 90 1015.0
20260906054511 21 167 0.0 0.0 0.00 0.00 0.00 89 1014.8
20260906053020 21 167 0.0 0.0 0.00 0.00 0.00 89 1014.8
20260906051523 22 167 0.0 0.0 0.00 0.00 0.00 89 1014.9
20260906050006 22 167 0.0 0.0 0.00 0.00 0.00 88 1014.9
20260906044508 22 167 0.0 0.0 0.00 0.00 0.00 87 1015.1
20260906043013 22 167 0.0 0.0 0.00 0.00 0.00 87 1015.1
20260906041520 22 167 0.0 0.0 0.00 0.00 0.00 86 1015.2
20260906040024 22 167 0.0 3.2 0.00 0.00 0.00 86 1015.3
20260906034507 23 167 0.0 3.2 0.00 0.00 0.00 86 1015.6
20260906033017 23 167 0.0 3.2 0.00 0.00 0.00 85 1015.6
20260906031516 23 167 0.0 3.2 0.00 0.00 0.00 85 1015.5
20260906030022 23 167 0.0 3.2 0.00 0.00 0.00 84 1015.2
20260906024528 23 65 0.0 3.2 0.00 0.00 0.00 83 1015.2
20260906023033 24 65 0.0 1.6 0.00 0.00 0.00 81 1015.1
20260906021516 24 360 0.0 3.2 0.00 0.00 0.00 80 1015.0
20260906020018 25 360 0.0 3.2 0.00 0.00 0.00 80 1015.1
20260906014532 25 360 0.0 3.2 0.00 0.00 0.00 79 1015.2
20260906013030 25 360 1.6 4.8 0.00 0.00 0.00 78 1015.0
20260906011530 26 44 1.6 4.8 0.00 0.00 0.00 77 1014.6
20260906010014 26 44 3.2 4.8 0.00 0.00 0.00 76 1014.2
20260906004519 26 315 0.0 6.4 0.00 0.00 0.00 75 1014.3
20260906003027 27 31 1.6 8.0 0.00 0.00 0.00 75 1014.0
20260906001529 27 16 3.2 6.4 0.00 0.00 0.00 74 1013.7
20260906000031 28 37 3.2 4.8 0.00 0.00 0.00 73 1014.0
20260905234516 28 300 0.0 4.8 0.00 0.00 0.00 70 1014.1
20260905233024 29 313 3.2 6.4 0.00 0.00 0.00 67 1014.1
20260905231527 30 1 3.2 6.4 0.00 0.00 0.00 63 1014.0
20260905230032 30 68 0.0 4.8 0.00 0.00 0.00 62 1013.9
20260905224534 31 359 1.6 11.3 0.00 0.00 0.00 60 1014.0
20260905223023 31 46 1.6 8.0 0.00 0.00 0.00 62 1013.9
20260905221534 30 19 3.2 6.4 0.00 0.00 0.00 64 1014.1
20260905220030 28 360 3.2 4.8 0.00 0.00 0.00 65 1013.9
20260905214530 30 6 3.2 4.8 0.00 0.00 0.00 64 1014.1
20260905213035 30 163 1.6 8.0 0.00 0.00 0.00 58 1014.4
20260905211529 31 184 0.0 9.7 0.00 0.00 0.00 55 1014.2
20260905210032 31 104 4.8 14.5 0.00 0.00 0.00 53 1014.5
20260905204529 33 41 6.4 22.5 0.00 0.00 0.00 51 1014.1
20260905203038 35 104 4.8 12.9 0.00 0.00 0.00 46 1014.1
20260905201535 35 338 6.4 12.9 0.00 0.00 0.00 46 1014.2
20260905200028 35 314 4.8 12.9 0.00 0.00 0.00 46 1014.3
20260905194531 35 285 4.8 12.9 0.00 0.00 0.00 45 1014.6
20260905193032 35 283 1.6 17.7 0.00 0.00 0.00 47 1014.7
20260905191533 35 4 4.8 12.9 0.00 0.00 0.00 50 1014.9
20260905190004 34 218 1.6 16.1 0.00 0.00 0.00 47 1015.1
20260905184504 34 302 4.8 12.9 0.00 0.00 0.00 47 1015.3
20260905183004 34 358 9.7 14.5 0.00 0.00 0.00 48 1015.5
20260905181504 33 313 4.8 11.3 0.00 0.00 0.00 51 1015.8
20260905180004 33 360 6.4 16.1 0.00 0.00 0.00 53 1016.0
20260905174512 33 324 6.4 12.9 0.00 0.00 0.00 53 1016.1
20260905173017 33 23 4.8 16.1 0.00 0.00 0.00 53 1016.3
20260905171504 33 333 6.4 12.9 0.00 0.00 0.00 52 1016.4
20260905170006 33 326 8.0 16.1 0.00 0.00 0.00 54 1016.4
20260905164506 33 309 8.0 14.5 0.00 0.00 0.00 56 1016.6
20260905163004 33 10 4.8 14.5 0.00 0.00 0.00 55 1016.7
20260905161508 32 343 4.8 11.3 0.00 0.00 0.00 57 1017.0
20260905160008 32 295 3.2 12.9 0.00 0.00 0.00 59 1017.1
20260905154506 32 43 4.8 12.9 0.00 0.00 0.00 61 1017.2
20260905153006 31 344 8.0 12.9 0.00 0.00 0.00 63 1017.2
20260905151508 31 342 4.8 12.9 0.00 0.00 0.00 63 1017.2
20260905150011 31 4 4.8 11.3 0.00 0.00 0.00 65 1017.3
20260905144509 31 66 1.6 6.4 0.00 0.00 0.00 67 1017.3
20260905143014 30 46 0.0 0.0 0.00 0.00 0.00 67 1017.4
20260905141510 30 208 0.0 0.0 0.00 0.00 0.00 69 1017.4
20260905140016 29 11 0.0 0.0 0.00 0.00 0.00 70 1017.6
20260905134517 28 90 0.0 3.2 0.00 0.00 0.00 73 1017.5
20260905133016 27 60 0.0 3.2 0.00 0.00 0.00 74 1017.7
20260905131530 26 60 0.0 3.2 0.00 0.00 0.00 82 1017.7
20260905130016 25 332 0.0 3.2 0.00 0.00 0.00 89 1017.8
20260905124533 23 332 0.0 3.2 0.00 0.00 0.00 95 1017.8
20260905123014 21 332 0.0 1.6 0.00 0.00 0.00 94 1017.6
20260905121524 21 332 0.0 1.6 0.00 0.00 0.00 94 1017.3
20260905120017 20 332 0.0 0.0 0.00 0.00 0.00 94 1017.3
20260905114535 20 332 1.6 3.2 0.00 0.00 0.00 93 1017.0
20260905113020 20 332 0.0 3.2 0.00 0.00 0.00 93 1016.7
20260905111527 20 332 0.0 1.6 0.00 0.00 0.00 93 1016.5
20260905110023 20 332 0.0 1.6 0.00 0.00 0.00 93 1016.6
20260905104520 20 332 0.0 1.6 0.00 0.00 0.00 93 1016.3
20260905103029 20 332 0.0 3.2 0.00 0.00 0.00 93 1016.3
20260905101530 20 332 0.0 1.6 0.00 0.00 0.00 93 1016.2
20260905100016 20 332 0.0 1.6 0.00 0.00 0.00 93 1016.2
20260905094517 20 332 0.0 1.6 0.00 0.00 0.00 93 1016.1
20260905093010 20 332 0.0 4.8 0.00 0.00 0.00 93 1016.0
20260905091516 20 332 1.6 4.8 0.00 0.00 0.00 92 1015.9
20260905090026 20 332 0.0 0.0 0.00 0.00 0.00 93 1015.9
20260905084549 20 332 0.0 1.6 0.00 0.00 0.00 93 1015.9